GW4382 Weather Reports


time (UTC)temp
F
wind
direction
speed
knots
gust
knots
rain 1hr
in
rain 24hr
in
rain mn
in
humidity
%
barometer
mb
20260507224559 46 71 0.9 5.2 0.00 0.00 0.00 88 1017.4
20260507223100 46 63 0.9 3.5 0.00 0.00 0.00 88 1017.3
20260507221602 46 102 1.7 5.2 0.00 0.00 0.00 88 1017.3
20260507220059 46 92 1.7 5.2 0.00 0.00 0.00 88 1017.3
20260507214559 47 90 0.0 5.2 0.00 0.00 0.00 87 1017.5
20260507213056 47 61 0.9 4.3 0.00 0.00 0.00 87 1017.5
20260507211628 47 63 0.9 6.1 0.00 0.00 0.00 87 1017.5
20260507210054 48 80 1.7 6.1 0.00 0.00 0.00 86 1017.4
20260507204556 48 88 1.7 7.8 0.00 0.00 0.00 86 1017.4
20260507203056 48 34 1.7 7.0 0.00 0.00 0.00 85 1017.2
20260507201557 49 55 1.7 4.3 0.00 0.00 0.00 84 1017.1
20260507200106 49 0 0.9 3.5 0.00 0.00 0.00 83 1016.9
20260507194557 50 90 0.0 2.6 0.00 0.00 0.00 82 1016.8
20260507193101 50 88 0.9 2.6 0.00 0.00 0.00 81 1016.7
20260507191559 51 96 0.0 3.5 0.00 0.00 0.00 80 1016.7
20260507190059 51 116 0.9 2.6 0.00 0.00 0.00 78 1016.6
20260507184558 52 0 0.9 3.5 0.00 0.00 0.00 76 1016.5
20260507183106 53 96 0.9 3.5 0.00 0.00 0.00 75 1016.4
20260507181557 53 104 0.0 3.5 0.00 0.00 0.00 75 1016.3
20260507180105 54 57 1.7 7.0 0.00 0.00 0.00 75 1016.3
20260507174630 55 57 0.9 3.5 0.00 0.00 0.00 77 1016.3
20260507173058 55 119 0.9 2.6 0.00 0.00 0.00 77 1016.3
20260507171610 55 0 0.0 3.5 0.00 0.00 0.00 77 1016.4
20260507170058 55 123 0.9 5.2 0.00 0.00 0.00 76 1016.4
20260507164556 55 116 0.9 3.5 0.00 0.00 0.00 77 1016.4
20260507163055 54 122 1.7 7.0 0.00 0.00 0.00 77 1016.3
20260507161559 55 0 0.9 5.2 0.00 0.00 0.00 77 1016.4
20260507160117 54 146 2.6 6.1 0.00 0.00 0.00 76 1016.4
20260507154558 54 119 0.9 7.0 0.00 0.00 0.00 76 1016.4
20260507153056 55 113 0.9 7.0 0.00 0.00 0.00 76 1016.5
20260507151600 55 90 0.0 2.6 0.00 0.00 0.00 75 1016.4
20260507150058 56 91 1.7 6.1 0.00 0.00 0.00 74 1016.5
20260507144555 56 0 0.0 3.5 0.00 0.00 0.00 73 1016.4
20260507143108 56 0 2.6 4.3 0.00 0.00 0.00 73 1016.5
20260507141617 57 123 1.7 4.3 0.00 0.00 0.00 72 1016.6
20260507140112 56 129 0.9 4.3 0.00 0.00 0.00 73 1016.7
20260507134600 56 150 1.7 5.2 0.00 0.00 0.00 75 1016.7
20260507133103 55 0 0.0 2.6 0.00 0.00 0.00 76 1016.6
20260507131620 55 215 0.0 3.5 0.00 0.00 0.00 77 1016.7
20260507130107 54 0 0.9 2.6 0.00 0.00 0.00 78 1016.7
20260507124601 54 171 0.9 3.5 0.00 0.00 0.00 77 1016.7
20260507123102 54 186 1.7 7.8 0.00 0.00 0.00 77 1016.7
20260507121558 53 138 0.9 3.5 0.00 0.00 0.00 76 1016.8
20260507120057 53 147 1.7 7.0 0.00 0.00 0.00 77 1017.0
20260507114557 54 142 1.7 6.1 0.00 0.00 0.00 76 1016.8
20260507113127 54 118 2.6 7.8 0.00 0.00 0.00 76 1016.8
20260507111556 54 146 2.6 8.7 0.00 0.00 0.00 75 1016.8
20260507110057 56 109 4.3 8.7 0.00 0.00 0.00 73 1016.8
20260507104609 57 115 1.7 6.1 0.00 0.00 0.00 70 1016.8
20260507103055 57 49 1.7 5.2 0.00 0.00 0.00 68 1017.0
20260507101556 58 135 0.9 3.5 0.00 0.00 0.00 68 1017.0
20260507100100 57 56 0.0 3.5 0.00 0.00 0.00 70 1017.1
20260507094606 57 152 0.9 5.2 0.00 0.00 0.00 69 1017.0
20260507093057 57 0 0.9 3.5 0.00 0.00 0.00 69 1017.0
20260507091555 59 123 0.9 6.1 0.00 0.00 0.00 68 1016.9
20260507090056 58 65 1.7 6.1 0.00 0.00 0.00 70 1016.8
20260507084600 56 173 2.6 6.1 0.00 0.00 0.00 71 1016.8
20260507083056 55 55 3.5 8.7 0.00 0.00 0.00 74 1016.8
20260507081556 54 144 1.7 5.2 0.00 0.00 0.00 78 1016.7
20260507074558 50 65 0.9 3.5 0.00 0.00 0.00 82 1016.8
20260507073059 50 29 1.7 7.0 0.00 0.00 0.00 83 1016.6
20260507071557 49 83 0.0 7.0 0.00 0.00 0.00 84 1016.6
20260507070109 49 36 1.7 4.3 0.00 0.00 0.00 86 1016.4
20260507064602 48 40 0.9 3.5 0.00 0.00 0.00 87 1016.4
20260507063058 48 28 1.7 3.5 0.00 0.00 0.00 88 1016.6
20260507061557 47 349 1.7 3.5 0.00 0.00 0.00 88 1016.4
20260507060058 47 0 0.9 4.3 0.00 0.00 0.00 88 1016.3
20260507054555 47 0 0.0 0.0 0.00 0.00 0.00 88 1016.1
20260507053059 46 0 0.0 0.0 0.00 0.00 0.00 88 1016.1
20260507051607 46 0 0.0 0.0 0.00 0.00 0.00 88 1016.2
20260507050112 46 0 0.0 0.0 0.00 0.00 0.00 88 1016.1
20260507044559 46 0 0.0 2.6 0.00 0.00 0.00 88 1016.0
20260507043057 46 0 0.0 1.7 0.00 0.00 0.00 88 1015.9
20260507041557 46 0 0.9 1.7 0.00 0.00 0.00 87 1015.9
20260507040106 46 23 0.0 2.6 0.00 0.00 0.00 87 1015.9
20260507034607 46 24 0.9 1.7 0.00 0.00 0.00 87 1015.8
20260507033100 47 24 0.9 2.6 0.00 0.00 0.00 87 1015.6
20260507031556 47 26 0.9 2.6 0.00 0.00 0.00 87 1015.6
20260507030056 47 31 0.9 3.5 0.00 0.00 0.00 87 1015.6
20260507024558 47 21 0.9 2.6 0.00 0.00 0.00 87 1015.6
20260507023057 47 20 0.9 2.6 0.00 0.00 0.00 87 1015.5
20260507021611 47 24 1.7 3.5 0.00 0.00 0.00 86 1015.4
20260507020059 47 30 0.9 2.6 0.00 0.00 0.00 86 1015.3
20260507014600 47 12 0.0 3.5 0.00 0.00 0.00 86 1015.2
20260507013057 47 360 0.9 3.5 0.00 0.00 0.00 86 1015.2
20260507011558 47 17 0.9 3.5 0.00 0.00 0.00 86 1015.3
20260507004557 47 12 0.9 3.5 0.00 0.00 0.00 86 1015.3
20260507003104 47 15 0.9 3.5 0.00 0.00 0.00 86 1015.3
20260507001606 47 20 1.7 2.6 0.00 0.00 0.00 86 1015.2
20260507000101 47 11 0.9 3.5 0.00 0.00 0.00 86 1015.3
20260506234626 48 11 0.9 2.6 0.00 0.00 0.00 85 1015.2
20260506233056 48 23 0.9 3.5 0.00 0.00 0.00 85 1015.3
20260506231557 48 58 0.0 3.5 0.00 0.00 0.00 85 1015.1
20260506230059 48 0 0.0 0.0 0.00 0.00 0.00 85 1015.3